[[{"header":{"parameterUnit":"m.s-1","parameterCategory":1,"la1":30.2991,"la2":30.254,"lo1":-89.0895,"lo2":-89.0444,"dy":0.0017,"dx":0.0017,"nx":28,"ny":28,"refTime":"2026-01-04T03:00:00:Z","depth":0,"parameterNumber":2,"parameterNumberName":"U-component_of_WINDS"},"data":[0,0,0,0,0,0,0,0,0,0,0,0,0,0,0,0,0,0,0,0,0,0,0,0,0,0,0,0,0,0,0,0,0,0,0,0,0,0,0,0,0,0,0,0,0,0,0,0,0,0,0,0,0,0,0,0,0,0,1.1027,1.1026,0,1.1004,1.1004,1.1003,1.101,1.101,1.1011,1.1011,1.0982,1.0981,1.098,0,0,0,0,0,0,0,0,0,0,0,0,0,1.107,1.1069,1.1027,1.1026,1.1026,1.1004,1.1004,1.1003,1.101,1.101,1.1011,1.1012,1.0982,1.0981,1.0979,0,0,0,0,0,0,0,0,0,0,0,0,0,1.105,1.1069,1.1027,1.1027,1.1027,1.1004,1.1004,1.1003,1.101,1.101,1.1011,1.1012,1.0983,1.0981,1.0979,1.0953,0,0,1.0974,1.0973,0,0,0,0,0,0,0,0,1.1051,1.1048,1.1027,1.1027,1.1027,1.1011,1.1008,1.0986,1.101,1.1016,1.1011,1.1012,1.0991,1.0988,1.0982,1.0952,1.0951,1.0973,1.0972,1.0971,1.0971,0,0,0,0,0,0,0,1.1052,1.1049,1.1018,1.1027,1.1026,1.1026,1.1024,1.1004,1.0999,1.1015,1.1016,1.1013,1.099,1.0984,1.0981,1.095,1.0973,1.0972,1.0971,1.097,1.0896,1.0895,0,0,0,0,0,0,1.1055,1.105,1.1018,1.1017,1.1041,1.1025,1.1023,1.1015,1.1,1.0998,1.1013,1.1014,1.0987,1.0984,1.098,1.0948,1.0972,1.097,1.0969,1.0897,1.0896,1.0895,0,0,0,0,0,0,1.1056,1.1052,1.1019,1.1034,1.103,1.1023,1.1015,1.1014,1.1008,1.0998,1.0996,1.1007,1.0987,1.0983,1.096,1.0947,1.0969,1.0967,1.0898,1.0896,1.0895,1.0883,0,0,0,0,0,0,1.1057,1.1052,1.1043,1.1034,1.1029,1.1001,1.1014,1.1013,1.1005,1.1006,1.0992,1.099,1.0987,1.0963,1.0958,1.0945,1.0966,1.0899,1.0897,1.0896,1.0884,1.0881,1.0879,0,0,0,0,0,1.1058,1.104,1.1043,1.1039,1.1018,1.1,1.0997,1.0996,1.1004,1.0994,1.0988,1.0991,1.095,1.096,1.0955,1.0941,1.09,1.0898,1.0896,1.0886,1.0882,1.0879,0,0,0,0,0,0,1.1046,1.1039,1.1042,1.102,1.1011,1.1002,1.0989,1.0992,1.0979,1.098,1.0977,1.0974,1.095,1.0944,1.0956,1.0914,1.0925,1.0922,1.0919,1.0916,1.0913,1.0914,1.0964,0,0,0,0,0,1.1042,1.103,1.1023,1.1004,1.1,1.0995,1.0987,1.0987,1.0977,1.0972,1.0964,1.0952,1.0937,1.0926,1.0911,1.0884,1.088,1.0872,1.0869,1.0867,1.0863,1.0847,1.0842,1.0889,1.0889,1.0889,0,0,1.1031,1.1025,1.1017,1.1001,1.0994,1.098,1.0992,1.0976,1.0965,1.0969,1.0947,1.0941,1.0927,1.0902,1.089,1.0896,1.085,1.0864,1.0862,1.086,1.0844,1.084,1.0836,1.0887,1.0887,1.0888,0,0,1.1003,1.0999,1.0982,1.0975,1.0965,1.0963,1.0959,1.0949,1.0945,1.0924,1.0927,1.0912,1.0885,1.0875,1.0867,1.0836,1.0837,1.0831,1.0815,1.0799,1.0795,1.0792,1.0779,1.0775,1.0828,1.0828,1.0828,0,1.099,1.0971,1.0973,1.0957,1.0949,1.0955,1.0937,1.0929,1.0914,1.0907,1.0914,1.0881,1.0872,1.0844,1.0836,1.083,1.0823,1.0832,1.0796,1.0793,1.079,1.0777,1.0772,1.0827,1.0827,1.0827,1.0827,0,1.0955,1.0941,1.0928,1.0915,1.0906,1.0889,1.0887,1.0877,1.0878,1.0874,1.0851,1.0841,1.0824,1.0817,1.0817,1.0788,1.0791,1.0797,1.0808,1.0784,1.0772,1.0768,1.0826,1.0826,1.0827,1.0827,0,0,1.0917,1.0907,1.0902,1.0896,1.0885,1.0873,1.0856,1.0841,1.0832,1.0821,1.0805,1.0783,1.0788,1.0778,1.0777,1.0763,1.0737,1.077,1.077,1.0763,1.0702,1.0696,1.0691,1.0739,1.0738,1.0737,1.0702,0,1.0888,1.086,1.0861,1.0833,1.082,1.0825,1.081,1.08,1.0796,1.0782,1.0777,1.0761,1.077,1.0764,1.0751,1.0743,1.0724,1.0746,1.0721,1.072,1.0722,1.0685,1.0679,1.0647,1.0698,1.0697,1.0697,0,1.0849,1.0839,1.0811,1.0802,1.0796,1.0783,1.0768,1.0756,1.0745,1.0743,1.0732,1.0733,1.0713,1.0726,1.0697,1.0712,1.0702,1.0697,1.0695,1.0691,1.0705,1.0678,1.0636,1.0631,1.069,1.069,1.0691,0,1.0823,1.0802,1.0782,1.0777,1.0766,1.0756,1.0751,1.0741,1.0732,1.0719,1.0712,1.0697,1.0687,1.0674,1.067,1.068,1.064,1.0654,1.0636,1.0636,1.0625,1.0626,1.058,1.0623,1.0623,1.0623,1.0623,0,1.0788,1.077,1.077,1.0757,1.0737,1.0738,1.0717,1.0712,1.0703,1.0688,1.0692,1.0677,1.0674,1.0658,1.0654,1.063,1.0626,1.0622,1.0621,1.062,1.062,1.0612,1.0613,1.0621,1.0622,1.0622,1.0622,0,1.0754,1.0754,1.0732,1.0725,1.0722,1.0707,1.07,1.0687,1.0684,1.0664,1.066,1.0654,1.0635,1.0631,1.0608,1.0606,1.0576,1.0578,1.058,1.0579,1.0561,1.0562,1.0506,1.0498,1.0548,1.0548,1.0547,0,1.0731,1.0718,1.0709,1.0701,1.0695,1.0681,1.0672,1.0673,1.0662,1.0649,1.0637,1.0619,1.0605,1.0574,1.0566,1.0549,1.0549,1.0531,1.0546,1.0546,1.0546,1.0546,1.0543,1.0527,1.0526,1.0526,1.0526,0,1.069,1.069,1.0678,1.0666,1.0655,1.0645,1.0635,1.0627,1.0626,1.0614,1.0596,1.0586,1.0563,1.0544,1.0527,1.0519,1.052,1.0521,1.0516,1.0514,1.0515,1.0512,1.057,1.0522,1.0522,1.0522,1.0523,1.0523,1.0659,1.0647,1.0639,1.0625,1.0618,1.0609,1.0596,1.0592,1.0578,1.0561,1.0562,1.0542,1.0529,1.0506,1.0497,1.048,1.0485,1.0478,1.0475,1.0473,1.047,1.052,1.0477,1.0477,1.0477,1.0477,1.0477,0,1.0616,1.0612,1.0599,1.0586,1.0574,1.0581,1.057,1.0559,1.0542,1.0532,1.0518,1.0497,1.0479,1.047,1.0452,1.0439,1.0439,1.0434,1.0433,1.0431,1.0468,1.0473,1.0434,1.0434,1.0434,1.0434,1.0434,1.0434,1.0592,1.0571,1.0571,1.0546,1.0541,1.0523,1.0516,1.0507,1.0499,1.0475,1.0461,1.0457,1.0446,1.0427,1.041,1.0408,1.0399,1.0393,1.0391,1.0424,1.0429,1.0433,1.0438,1.0392,1.0392,1.0355,1.0355,1.0355]},{"header":{"parameterUnit":"m.s-1","parameterCategory":1,"la1":30.2991,"la2":30.254,"lo1":-89.0895,"lo2":-89.0444,"dy":0.0017,"dx":0.0017,"nx":28,"ny":28,"refTime":"2026-01-04T03:00:00:Z","depth":0,"parameterNumber":3,"parameterNumberName":"V-component_of_WINDS"},"data":[0,0,0,0,0,0,0,0,0,0,0,0,0,0,0,0,0,0,0,0,0,0,0,0,0,0,0,0,0,0,0,0,0,0,0,0,0,0,0,0,0,0,0,0,0,0,0,0,0,0,0,0,0,0,0,0,0,0,-0.669,-0.669,0,-0.6706,-0.6706,-0.6706,-0.6706,-0.6706,-0.6706,-0.6706,-0.6725,-0.6725,-0.6726,0,0,0,0,0,0,0,0,0,0,0,0,0,-0.6664,-0.6664,-0.669,-0.669,-0.669,-0.6705,-0.6706,-0.6706,-0.6707,-0.6706,-0.6706,-0.6706,-0.6724,-0.6725,-0.6726,0,0,0,0,0,0,0,0,0,0,0,0,0,-0.6677,-0.6664,-0.669,-0.6692,-0.6693,-0.6705,-0.6706,-0.6706,-0.6707,-0.6706,-0.6706,-0.6706,-0.6724,-0.6725,-0.6726,-0.6738,0,0,-0.6729,-0.673,0,0,0,0,0,0,0,0,-0.6676,-0.6678,-0.6692,-0.6692,-0.6693,-0.6704,-0.6703,-0.6717,-0.6707,-0.6701,-0.6706,-0.6706,-0.6718,-0.672,-0.6723,-0.6739,-0.674,-0.6729,-0.673,-0.673,-0.6731,0,0,0,0,0,0,0,-0.6675,-0.6677,-0.6696,-0.6692,-0.6693,-0.6694,-0.6695,-0.6706,-0.6711,-0.6702,-0.6702,-0.6704,-0.6718,-0.6722,-0.6724,-0.674,-0.6729,-0.673,-0.6731,-0.6731,-0.6767,-0.6767,0,0,0,0,0,0,-0.6673,-0.6676,-0.6696,-0.6697,-0.6683,-0.6694,-0.6696,-0.6701,-0.6711,-0.6712,-0.6704,-0.6704,-0.6721,-0.6722,-0.6724,-0.6739,-0.673,-0.6731,-0.6732,-0.6767,-0.6767,-0.6767,0,0,0,0,0,0,-0.6673,-0.6675,-0.6695,-0.6687,-0.6689,-0.6695,-0.67,-0.6701,-0.6705,-0.6713,-0.6714,-0.6707,-0.672,-0.6723,-0.6734,-0.674,-0.6732,-0.6733,-0.6766,-0.6767,-0.6767,-0.6769,0,0,0,0,0,0,-0.6672,-0.6675,-0.6679,-0.6687,-0.669,-0.6704,-0.67,-0.6702,-0.6706,-0.6706,-0.6716,-0.6717,-0.672,-0.6733,-0.6735,-0.6741,-0.6733,-0.6766,-0.6766,-0.6767,-0.6768,-0.6769,-0.677,0,0,0,0,0,-0.6671,-0.6679,-0.6679,-0.6681,-0.6695,-0.6704,-0.6706,-0.6709,-0.6707,-0.6711,-0.6716,-0.6717,-0.6739,-0.6734,-0.6737,-0.6743,-0.6765,-0.6766,-0.6767,-0.6768,-0.6769,-0.677,0,0,0,0,0,0,-0.6673,-0.668,-0.668,-0.6691,-0.6697,-0.6705,-0.671,-0.6711,-0.6718,-0.6718,-0.6722,-0.6724,-0.6736,-0.6741,-0.6735,-0.6755,-0.6752,-0.6753,-0.6751,-0.6753,-0.6754,-0.6752,-0.6734,0,0,0,0,0,-0.6674,-0.6681,-0.6687,-0.6696,-0.6699,-0.6704,-0.6709,-0.671,-0.6717,-0.672,-0.6726,-0.6733,-0.6742,-0.6748,-0.6756,-0.6769,-0.6771,-0.6775,-0.6775,-0.6776,-0.6777,-0.6785,-0.6786,-0.677,-0.677,-0.677,0,0,-0.6677,-0.6682,-0.6686,-0.6697,-0.6702,-0.6709,-0.6706,-0.6714,-0.672,-0.6722,-0.6733,-0.6737,-0.6746,-0.6758,-0.6764,-0.6763,-0.6782,-0.6777,-0.6778,-0.6778,-0.6786,-0.6787,-0.6788,-0.677,-0.677,-0.677,0,0,-0.6687,-0.6692,-0.6699,-0.6704,-0.6711,-0.6715,-0.6717,-0.6724,-0.6727,-0.6738,-0.6739,-0.6747,-0.6762,-0.6768,-0.6773,-0.6785,-0.6786,-0.6788,-0.6793,-0.68,-0.6801,-0.6802,-0.6807,-0.6809,-0.6789,-0.6789,-0.6789,0,-0.6691,-0.6701,-0.6703,-0.6711,-0.6716,-0.6717,-0.6725,-0.673,-0.674,-0.6744,-0.6742,-0.676,-0.6766,-0.678,-0.6783,-0.6787,-0.679,-0.6787,-0.6801,-0.6802,-0.6803,-0.6807,-0.6809,-0.6789,-0.6789,-0.6789,-0.6789,0,-0.6705,-0.6712,-0.6718,-0.6726,-0.6732,-0.674,-0.6744,-0.675,-0.6751,-0.6755,-0.6767,-0.6774,-0.6784,-0.6787,-0.6789,-0.6801,-0.68,-0.68,-0.6796,-0.6805,-0.6809,-0.6811,-0.679,-0.679,-0.679,-0.6789,0,0,-0.6716,-0.6726,-0.6728,-0.6732,-0.674,-0.6746,-0.6754,-0.6763,-0.6768,-0.6775,-0.6783,-0.6795,-0.6794,-0.68,-0.6803,-0.6809,-0.6819,-0.6808,-0.6808,-0.681,-0.6833,-0.6834,-0.6835,-0.682,-0.682,-0.682,-0.6832,0,-0.6727,-0.674,-0.6743,-0.6756,-0.6763,-0.6764,-0.6771,-0.6778,-0.6782,-0.6789,-0.6794,-0.6802,-0.6801,-0.6804,-0.6811,-0.6816,-0.6824,-0.6815,-0.6827,-0.6828,-0.6825,-0.6838,-0.6838,-0.6849,-0.6834,-0.6834,-0.6835,0,-0.6741,-0.6747,-0.676,-0.6767,-0.677,-0.6777,-0.6785,-0.6792,-0.68,-0.6802,-0.6808,-0.681,-0.682,-0.6817,-0.6831,-0.6825,-0.6831,-0.6834,-0.6835,-0.6836,-0.6832,-0.6839,-0.6853,-0.6855,-0.6837,-0.6837,-0.6837,0,-0.6747,-0.6759,-0.6769,-0.6772,-0.6781,-0.6785,-0.6789,-0.6796,-0.6802,-0.6809,-0.6813,-0.6822,-0.6827,-0.6835,-0.684,-0.6837,-0.6854,-0.685,-0.6857,-0.6856,-0.686,-0.686,-0.6875,-0.6863,-0.6863,-0.6863,-0.6863,0,-0.6759,-0.6767,-0.6772,-0.6777,-0.6786,-0.679,-0.6799,-0.6803,-0.681,-0.6817,-0.6819,-0.6826,-0.6832,-0.684,-0.6844,-0.6856,-0.6858,-0.6861,-0.6862,-0.6861,-0.686,-0.6864,-0.6863,-0.6864,-0.6864,-0.6864,-0.6864,0,-0.6768,-0.6771,-0.6781,-0.6788,-0.6791,-0.6797,-0.6804,-0.681,-0.6814,-0.6823,-0.6825,-0.6832,-0.6842,-0.6847,-0.686,-0.6863,-0.6875,-0.6876,-0.6872,-0.6873,-0.6879,-0.6878,-0.6897,-0.69,-0.6886,-0.6886,-0.6886,0,-0.6775,-0.6781,-0.6788,-0.6793,-0.6796,-0.6804,-0.6809,-0.6813,-0.6818,-0.6827,-0.6832,-0.6842,-0.685,-0.6866,-0.6872,-0.6882,-0.6883,-0.6889,-0.6885,-0.6883,-0.6883,-0.6883,-0.6884,-0.689,-0.689,-0.689,-0.689,0,-0.6787,-0.6788,-0.6795,-0.6802,-0.6808,-0.6814,-0.682,-0.6824,-0.6829,-0.6836,-0.6845,-0.6851,-0.6863,-0.6873,-0.6883,-0.6889,-0.6891,-0.6891,-0.6893,-0.6892,-0.689,-0.6891,-0.6874,-0.6891,-0.6891,-0.6891,-0.6891,-0.6891,-0.6795,-0.68,-0.6806,-0.6814,-0.6819,-0.6825,-0.6831,-0.6835,-0.6843,-0.6852,-0.6854,-0.6864,-0.6873,-0.6886,-0.6892,-0.6901,-0.69,-0.6903,-0.6903,-0.6904,-0.6904,-0.6888,-0.6903,-0.6903,-0.6903,-0.6903,-0.6903,0,-0.6807,-0.6811,-0.6818,-0.6826,-0.6832,-0.6832,-0.6839,-0.6845,-0.6853,-0.686,-0.6867,-0.6879,-0.6888,-0.6895,-0.6905,-0.6911,-0.6912,-0.6914,-0.6913,-0.6915,-0.6904,-0.6902,-0.6913,-0.6913,-0.6913,-0.6913,-0.6913,-0.6913,-0.6814,-0.6824,-0.6826,-0.6838,-0.6842,-0.6851,-0.6855,-0.6861,-0.6866,-0.6878,-0.6885,-0.689,-0.6897,-0.6908,-0.6917,-0.6919,-0.6923,-0.6924,-0.6926,-0.6916,-0.6915,-0.6914,-0.6912,-0.6925,-0.6925,-0.6936,-0.6936,-0.6936]}]]